Find Starlink 5999

NORAD ID: 56909 Int'l Des: 2023-083 Owner: SPXS Country: US Constellation: starlink operational
LEOCIRCULAR

Aktuelle Ansicht

3D-Globus wird geladen...

Über Starlink 5999

Beschreibung wird geladen...

Nächste Überflüge

Passes for default location (London). Set your location on the main map for personalized predictions.

Höhenverlauf

Loading altitude history...

Zweizeiliger Elementsatz

1 56909U 23083AK 26149.90182939 .00001352 00000-0 58656-4 0 9993
2 56909 43.0070 332.4579 0002051 272.7697 87.2920 15.27576353164324
Epoch: 29. Mai 2026 • Age: 20 hours

Aktueller Status

Höhe 482.7 km
Geschwindigkeit 7.63 km/s
Subsatellitenpunkt 12.15°N, 11.36°W
Startdatum 12. Juni 2023
Alter 2.9 years
Typ internet

Technische Details

Klassifizierung Payload
Masse 305.00 kg
Trockenmasse 290.00 kg
Gesamtmasse 305.00 kg
Länge 0.20 m
Durchmesser 2.80 m
Spannweite 9.00 m
Form Box + pan
Hersteller SPXS
Bus-Typ Starlink
Phasenstatus In Orbit
Besitzer/Staat SPXS/US

Most Searched